Regional Weather Roundup
Issued by NWS

Home | Current Version | Previous Version | Graphics & Text | Print | Product List | Glossary On
Versions: 1 2 3 4 5 6 7 8 9 10 11 12 13 14 15 16 17 18 19 20 21 22 23 24 25 26 27 28 29 30 31 32 33 34 35 36 37 38 39 40 41 42 43 44 45 46 47 48 49 50
000
ASUS43 KIND 301559
RWRIN

WEATHER ROUNDUP FOR INDIANA
NATIONAL WEATHER SERVICE INDIANAPOLIS IN
1200 PM EDT SAT APR 30 2016

NOTE: "FAIR" INDICATES FEW OR NO CLOUDS BELOW 12,000 FEET WITH NO
SIGNIFICANT WEATHER AND/OR OBSTRUCTIONS TO VISIBILITY.

* - STATION DOES NOT REPORT WEATHER SUCH AS PRECIPITATION OR FOG.

+ - STATION NOT QUALITY CONTROLLED BY THE NATIONAL WEATHER SERVICE.
    USE DATA WITH CAUTION...ESPECIALLY DEWPOINT AND RELATIVE
    HUMIDITY OBSERVATIONS.

INZ001>003-010>013-019-020-301700-
NORTHWEST INDIANA

CITY           SKY/WX    TMP DP  RH WIND       PRES   REMARKS
GARY /AIRPORT/ LGT RAIN  48  48 100 E12       30.04F
RENSSELAER +   LGT RAIN  46  46 100 E15       30.00S

$$

LMZ046-743>745-301700-
SOUTHERN LAKE MICHIGAN

STATION/POSITION TIME  TEMP    WIND        PRES    WAVE
                       AIR SEA DIR/SP/G            HT
                 (UTC) (F)     (DEG/KT/KT) (MB)    (FT)
BURNS HARBOR     1504   48      90/ 11/ 18 1017.6F
MICHIGAN CITY    1500   48      80/ 12/ 14   N/A

$$

INZ004-005-014>016-021>024-301700-
NORTH CENTRAL INDIANA

CITY           SKY/WX    TMP DP  RH WIND       PRES   REMARKS
ELKHART        LGT RAIN  48  41  76 E16       30.07F
GOSHEN         LGT RAIN  48  38  68 E10       30.07F
SOUTH BEND     LGT RAIN  47  39  74 E9        30.07F

$$

INZ006>009-017-018-025>027-301700-
NORTHEAST INDIANA

CITY           SKY/WX    TMP DP  RH WIND       PRES   REMARKS
ANGOLA *+      SUNNY     48  37  66 E8        30.08F
FORT WAYNE     LGT RAIN  47  41  80 E12       30.08S

$$

INZ028-029-035-036-043>045-051>053-301700-
WEST CENTRAL INDIANA

CITY           SKY/WX    TMP DP  RH WIND       PRES   REMARKS
CRAWFORDSVL +  RAIN      50  50 100 E12       29.97F
GREENCASTLE +  LGT RAIN  52  52 100 E9        29.96F
LAFAYETTE      LGT RAIN  49  47  93 E14       29.98F FOG
TERRE HAUTE    LGT RAIN  56  53  90 E10       29.92F FOG

$$

INZ030>032-037>040-046>048-054>057-064-065-301700-
CENTRAL INDIANA

CITY           SKY/WX    TMP DP  RH WIND       PRES   REMARKS
ANDERSON       LGT RAIN  50  50 100 E6        30.04S
COLUMBUS       LGT RAIN  54  54 100 E9        29.99F FOG
INDIANAPOLIS   LGT RAIN  52  49  89 E12       29.97F FOG
-EAGLE CREEK   LGT RAIN  52  50  93 E8        29.98F
KOKOMO *+      CLOUDY    46  43  87 E10       30.02F
SHELBYVILLE    LGT RAIN  54  50  86 E10       29.99F

$$

INZ033-034-041-042-049-050-058-059-301700-
EAST CENTRAL INDIANA

CITY           SKY/WX    TMP DP  RH WIND       PRES   REMARKS
MUNCIE         RAIN      50  46  86 E12       30.04S FOG

$$

INZ060-061-067>069-081>083-085>088-301700-
SOUTHWEST INDIANA

CITY           SKY/WX    TMP DP  RH WIND       PRES   REMARKS
EVANSVILLE     LGT RAIN  60  58  92 E10       29.86F
HUNTINGBURG *+ CLOUDY    59  55  88 SE9       29.92R

$$

INZ062-063-066-070>080-084-089>092-301700-
SOUTH CENTRAL AND SOUTHEAST INDIANA

CITY           SKY/WX    TMP DP  RH WIND       PRES   REMARKS
BLOOMINGTON    LGT RAIN  56  53  90 E8        29.94F
MADISON *+     CLOUDY    55  52  88 E9        30.00F
SEYMOUR +      LGT RAIN  57  55  94 E7        29.97F

$$





USA.gov is the U.S. government's official web portal to all federal, state and local government web resources and services.